This is the latest recevied weather packets stored in our database for station/object K6POO-1. If no packets are shown the sender has not sent any weather packets the latest 10 day(s).
| Time | Temp. | Humidity | Pressure | Rain* | Wind** | Luminosity | Snow |
|---|---|---|---|---|---|---|---|
| 1788473600 | 21.11° C | 72% | 1013.4 hPa | 0 mm | - | 295 W/m² | - |
| 1788473298 | 21.67° C | 70% | 1013.3 hPa | 0 mm | - | 311 W/m² | - |
| 1788472993 | 21.67° C | 71% | 1013.6 hPa | 0 mm | - | 306 W/m² | - |
| 1788472691 | 21.67° C | 71% | 1013.4 hPa | 0 mm | - | 349 W/m² | - |
| 1788472388 | 21.11° C | 71% | 1013.4 hPa | 0 mm | - | 425 W/m² | - |
| 1788472086 | 21.11° C | 71% | 1013.5 hPa | 0 mm | - | 309 W/m² | - |
| 1788471812 | 21.11° C | 70% | 1013.7 hPa | 0 mm | - | 409 W/m² | - |
| 1788471476 | 21.67° C | 70% | 1013.7 hPa | 0 mm | - | 384 W/m² | - |
| 1788471172 | 21.67° C | 69% | 1013.6 hPa | 0 mm | - | 369 W/m² | - |
| 1788470867 | 21.11° C | 70% | 1013.7 hPa | 0 mm | - | 400 W/m² | - |
| 1788470564 | 21.11° C | 69% | 1014 hPa | 0 mm | - | 294 W/m² | - |
| 1788470263 | 21.67° C | 69% | 1013.9 hPa | 0 mm | - | 289 W/m² | - |
| 1788469959 | 21.11° C | 69% | 1014.2 hPa | 0 mm | - | 279 W/m² | - |
| 1788469655 | 21.11° C | 69% | 1013.9 hPa | 0 mm | - | 282 W/m² | - |
| 1788469351 | 21.67° C | 68% | 1014 hPa | 0 mm | - | 340 W/m² | - |
| 1788469050 | 21.67° C | 67% | 1014.1 hPa | 0 mm | - | 399 W/m² | - |
| 1788468749 | 22.22° C | 68% | 1013.7 hPa | 0 mm | - | 429 W/m² | - |
| 1788468445 | 21.67° C | 69% | 1014.1 hPa | 0 mm | - | 550 W/m² | - |
| 1788468141 | 21.67° C | 68% | 1013.8 hPa | 0 mm | - | 428 W/m² | - |
| 1788467836 | 21.67° C | 68% | 1013.9 hPa | 0 mm | - | 454 W/m² | - |
| 1788467532 | 21.67° C | 69% | 1014 hPa | 0 mm | - | 573 W/m² | - |
| 1788467226 | 21.67° C | 69% | 1013.9 hPa | 0 mm | - | 454 W/m² | - |
| 1788466922 | 21.67° C | 69% | 1014 hPa | 0 mm | - | 315 W/m² | - |
| 1788466621 | 21.67° C | 69% | 1013.9 hPa | 0 mm | - | 323 W/m² | - |
| 1788466316 | 21.67° C | 69% | 1014.1 hPa | 0 mm | - | 399 W/m² | - |
* Rain latest hour (hover to see other rain measurements)
** Current wind speed in m/s (hover to see current wind gust speed)